Left ArrowRight Arrow

46.92218, -95.05863

Hourly Observations for April 26, 2023

Temp ( °F °C ) Dew Point ( °F °C ) Humidity (%) Winds ( mph kmh ) Pressure ( in mb ) Visibility ( mi km ) Precip ( " mm )
12:53 am 00:53 Clear 26 -3.3 19 -7.2 74 74 Calm 30.31 1026 10 16 0.00 0.00
1:53 am 01:53 Clear 29 -1.7 21 -6.1 72 72 Calm 30.30 1026 10 16 0.00 0.00
2:53 am 02:53 Clear 28 -2.2 21 -6.1 75 75 E 5 7 30.29 1026 10 16 0.00 0.00
3:53 am 03:53 Clear 24 -4.4 19 -7.2 81 81 Calm 30.29 1026 10 16 0.00 0.00
4:53 am 04:53 Clear 28 -2.2 20 -6.7 71 71 SSE 3 6 30.28 1026 10 16 0.00 0.00
5:53 am 05:53 Clear 28 -2.2 19 -7.2 68 68 SE 5 7 30.28 1025 10 16 0.00 0.00
6:53 am 06:53 Sunny 28 -2.2 20 -6.7 71 71 SSE 5 7 30.27 1025 10 16 0.00 0.00
7:53 am 07:53 Sunny 31 -0.6 22 -5.6 69 69 SE 7 11 30.26 1025 10 16 0.00 0.00
8:53 am 08:53 Sunny 37 2.8 24 -4.4 59 59 S 8 13 30.24 1024 10 16 0.00 0.00
9:53 am 09:53 Sunny 42 5.6 24 -4.4 48 48 SSE 10 17 30.22 1023 10 16 0.00 0.00
10:53 am 10:53 Sunny 46 7.8 22 -5.6 38 38 SSE 15 24 30.19 1022 10 16 0.00 0.00
11:53 am 11:53 Sunny 48 8.9 22 -5.6 35 35 SSE 18 30 30.17 1022 10 16 0.00 0.00
12:53 pm 12:53 Mostly Cloudy 50 10 24 -4.4 36 36 S 17 28 30.15 1021 10 16 0.00 0.00
1:53 pm 13:53 Partly Cloudy 51 10.6 25 -3.9 36 36 S 15 24 30.10 1019 10 16 0.00 0.00
2:53 pm 14:53 Cloudy 50 10 27 -2.8 40 40 S 18 30 30.07 1018 10 16 0.00 0.00
3:53 pm 15:53 Cloudy 50 10 28 -2.2 42 42 S 20 31 30.03 1017 10 16 0.00 0.00
4:53 pm 16:53 Cloudy with Light Rain 44 6.7 36 2.2 73 73 S 15 24 30.01 1016 10 16 0.01 0.25
5:53 pm 17:53 Cloudy with Light Rain 43 6.1 36 2.2 76 76 S 9 15 29.99 1016 10 16 0.02 0.51
6:53 pm 18:53 Cloudy with Light Rain 42 5.6 37 2.8 82 82 SSE 6 9 29.97 1015 5 8 0.02 0.51
7:53 pm 19:53 Cloudy with Light Rain 40 4.4 38 3.3 93 93 SSE 9 15 29.94 1014 4 6 0.08 2.03
8:53 pm 20:53 Cloudy with Light Rain 40 4.4 38 3.3 93 93 ESE 6 9 29.92 1013 8 13 0.09 2.29
9:53 pm 21:53 Cloudy 41 5 37 2.8 86 86 SE 9 15 29.88 1012 10 16 0.03 0.76
10:53 pm 22:53 Cloudy 40 4.4 38 3.3 93 93 SSE 6 9 29.86 1011 10 16 0.00 0.00
11:07 pm 23:07 Cloudy 40 4.4 38 3.3 93 93 SSE 3 6 29.86 1011 10 16 0.00 0.00
11:53 pm 23:53 Cloudy 41 5 39 3.9 93 93 Calm 29.84 1011 10 16 0.00 0.00

Powered by Vaisala Xweather